Location: Saratoga Springs
(43.0831°N, 73.7850°W)
Time: 15:44:36
(UTC-04:00)

A-11 Canister half - All Passes

Search period start: 19 April 2024 00:00
Search period end: 29 April 2024 00:00
Orbit: 1525 x 1683 km, 47.3° (Epoch: 18 April)

Date Brightness Start Highest point End Pass type
(mag) Time Alt. Az. Time Alt. Az. Time Alt. Az.
19 Apr - 04:50:06 10° S 04:57:20 23° SE 05:04:39 10° E visible
19 Apr - 06:51:12 10° SW 07:01:04 67° SE 07:11:08 10° ENE daylight
19 Apr - 08:56:15 10° W 09:06:24 74° N 09:16:35 10° ENE daylight
19 Apr - 11:02:09 10° WNW 11:12:24 77° NNE 11:22:29 10° E daylight
19 Apr - 13:07:37 10° WNW 13:17:32 61° SW 13:27:13 10° SE daylight
19 Apr - 15:14:38 10° W 15:21:04 19° SW 15:27:24 10° SSW daylight
20 Apr - 04:28:43 10° S 04:35:38 22° SE 04:42:40 10° E visible
20 Apr - 06:29:29 10° SW 06:39:19 65° SE 06:49:19 10° ENE daylight
20 Apr - 08:34:26 10° W 08:44:35 75° NNW 08:54:47 10° ENE daylight
20 Apr - 10:40:21 10° WNW 10:50:34 76° NNE 11:00:41 10° E daylight
20 Apr - 12:45:49 10° WNW 12:55:47 63° SW 13:05:32 10° SE daylight
20 Apr - 14:52:36 10° W 14:59:23 21° SW 15:06:05 10° S daylight
21 Apr - 04:07:22 10° SSE 04:13:58 20° SE 04:20:39 10° E visible
21 Apr - 06:07:48 10° SW 06:17:33 62° SE 06:27:31 10° ENE daylight
21 Apr - 08:12:37 10° W 08:22:45 76° NNW 08:32:58 10° ENE daylight
21 Apr - 10:18:32 10° WNW 10:28:45 75° NNE 10:38:53 10° E daylight
21 Apr - 12:24:00 10° WNW 12:34:02 65° SW 12:43:50 10° SE daylight
21 Apr - 14:30:37 10° W 14:37:43 22° SW 14:44:43 10° S daylight
22 Apr - 03:46:03 10° SSE 03:52:17 19° SE 03:58:38 10° E visible
22 Apr - 05:46:07 10° SW 05:55:48 60° SE 06:05:42 10° ENE daylight
22 Apr - 07:50:49 10° W 08:00:56 77° NNW 08:11:10 10° ENE daylight
22 Apr - 09:56:44 10° WNW 10:06:56 74° N 10:17:04 10° E daylight
22 Apr - 12:02:12 10° WNW 12:12:16 68° SW 12:22:08 10° SE daylight
22 Apr - 14:08:39 10° W 14:16:02 24° SW 14:23:19 10° S daylight
23 Apr - 03:24:46 10° SSE 03:30:38 18° ESE 03:36:33 10° E visible
23 Apr - 05:24:27 10° SW 05:34:03 58° SE 05:43:53 10° ENE visible
23 Apr - 07:29:01 10° WSW 07:39:07 78° NNW 07:49:21 10° ENE daylight
23 Apr - 09:34:55 10° WNW 09:45:06 73° N 09:55:15 10° E daylight
23 Apr - 11:40:24 10° WNW 11:50:30 70° SSW 12:00:26 10° SE daylight
23 Apr - 13:46:42 10° WNW 13:54:21 25° SW 14:01:53 10° S daylight
24 Apr - 03:03:33 10° SSE 03:08:58 16° ESE 03:14:26 10° E visible
24 Apr - 05:02:47 10° SW 05:12:18 55° SE 05:22:04 10° ENE visible
24 Apr - 07:07:13 10° WSW 07:17:17 79° NNW 07:27:32 10° ENE daylight
24 Apr - 09:13:06 10° WNW 09:23:16 72° N 09:33:26 10° E daylight
24 Apr - 11:18:37 10° WNW 11:28:44 73° SSW 11:38:42 10° SE daylight
24 Apr - 13:24:46 10° WNW 13:32:39 27° SW 13:40:27 10° S daylight
25 Apr - 02:42:24 10° SSE 02:47:18 15° ESE 02:52:15 10° E visible
25 Apr - 04:41:08 10° SSW 04:50:34 53° SE 05:00:15 10° ENE visible
25 Apr - 06:45:26 10° WSW 06:55:29 81° NNW 07:05:44 10° ENE daylight
25 Apr - 08:51:18 10° WNW 09:01:26 72° N 09:11:36 10° E daylight
25 Apr - 10:56:48 10° WNW 11:06:57 75° SSW 11:16:59 10° SE daylight
25 Apr - 13:02:50 10° WNW 13:10:58 28° SW 13:18:58 10° S daylight
26 Apr - 02:21:20 10° SSE 02:25:39 14° ESE 02:29:59 10° E visible
26 Apr - 04:19:30 10° SSW 04:28:50 51° SE 04:38:25 10° ENE visible
26 Apr - 06:23:39 10° WSW 06:33:40 82° NNW 06:43:55 10° ENE daylight
26 Apr - 08:29:29 10° WNW 08:39:37 71° N 08:49:47 10° E daylight
26 Apr - 10:35:01 10° WNW 10:45:10 77° SSW 10:55:14 10° SE daylight
26 Apr - 12:40:57 10° WNW 12:49:16 30° SW 12:57:28 10° S daylight
27 Apr - 02:00:25 10° SE 02:04:00 12° ESE 02:07:36 10° E visible
27 Apr - 03:57:52 10° SSW 04:07:06 48° SE 04:16:36 10° ENE visible
27 Apr - 06:01:51 10° WSW 06:11:52 84° NNW 06:22:06 10° ENE daylight
27 Apr - 08:07:40 10° W 08:17:46 71° N 08:27:57 10° E daylight
27 Apr - 10:13:13 10° WNW 10:23:23 79° SSW 10:33:29 10° SE daylight
27 Apr - 12:19:03 10° WNW 12:27:34 32° SW 12:35:58 10° S daylight
28 Apr - 01:39:44 10° SE 01:42:21 11° ESE 01:44:58 10° ESE visible
28 Apr - 03:36:15 10° SSW 03:45:23 46° SE 03:54:46 10° ENE visible
28 Apr - 05:40:05 10° WSW 05:50:04 85° NNW 06:00:18 10° ENE daylight
28 Apr - 07:45:52 10° W 07:55:57 70° N 08:06:08 10° E daylight
28 Apr - 09:51:25 10° WNW 10:01:36 82° SSW 10:11:44 10° ESE daylight
28 Apr - 11:57:11 10° WNW 12:05:51 34° SW 12:14:26 10° SSE daylight
